EW1549 Weather Reports


time (UTC)temp
C
wind
direction
speed
KPH
gust
KPH
rain 1hr
cm
rain 24hr
cm
rain mn
cm
humidity
%
barometer
mb
20260905181546 -17 296 4.8 12.9 0.00 0.00 0.00 1017.4
20260905180035 -17 347 6.4 9.7 0.00 0.00 0.00 1017.3
20260905174529 -17 21 6.4 16.1 0.00 0.00 0.00 1017.2
20260905173020 -17 354 4.8 16.1 0.00 0.00 0.00 1017.2
20260905171516 -17 20 11.3 17.7 0.00 0.00 0.00 1017.2
20260905170012 -17 345 11.3 19.3 0.00 0.00 0.00 1017.4
20260905164507 -17 17 0.0 17.7 0.00 0.00 0.00 1017.5
20260905163004 -17 329 4.8 16.1 0.00 0.00 0.00 1017.5
20260905161558 -17 36 14.5 22.5 0.00 0.00 0.00 1017.4
20260905160054 -17 41 12.9 20.9 0.00 0.00 0.00 1017.5
20260905154610 -17 210 1.6 17.7 0.00 0.00 0.00 1017.8
20260905153045 -17 304 8.0 14.5 0.00 0.00 0.00 1017.6
20260905151540 -17 313 4.8 19.3 0.00 0.00 0.00 1017.5
20260905150038 -17 6 11.3 17.7 0.00 0.00 0.00 1017.4
20260905144539 -17 56 8.0 19.3 0.00 0.00 0.00 1017.6
20260905143037 -17 27 8.0 16.1 0.00 0.00 0.00 1017.4
20260905141536 -17 23 14.5 20.9 0.00 0.00 0.00 1017.4
20260905140039 -17 46 9.7 17.7 0.00 0.00 0.00 1017.5
20260905134535 -17 27 6.4 17.7 0.00 0.00 0.00 1017.4
20260905133043 -17 17 4.8 12.9 0.00 0.00 0.00 1017.6
20260905131634 -17 352 6.4 17.7 0.00 0.00 0.00 1017.7
20260905130035 -17 58 9.7 19.3 0.00 0.00 0.00 1018.0
20260905124535 -17 10 16.1 20.9 0.00 0.00 0.00 1018.3
20260905123031 -17 36 9.7 17.7 0.00 0.00 0.00 1018.4
20260905121531 -17 22 6.4 16.1 0.00 0.00 0.00 1018.6
20260905120028 -17 354 14.5 22.5 0.00 0.00 0.00 1018.6
20260905114526 -17 36 3.2 9.7 0.00 0.00 0.00 1018.7
20260905113021 -17 55 0.0 11.3 0.00 0.00 0.00 1018.7
20260905111528 -17 10 4.8 12.9 0.00 0.00 0.00 1018.8
20260905110029 -17 358 0.0 8.0 0.00 0.00 0.00 1018.8
20260905104508 -17 355 0.0 6.4 0.00 0.00 0.00 1018.8
20260905103009 -17 353 0.0 4.8 0.00 0.00 0.00 1018.6
20260905101605 -17 353 6.4 9.7 0.00 0.00 0.00 1018.7
20260905100058 -17 225 0.0 0.0 0.00 0.00 0.00 1018.7
20260905094550 -17 225 0.0 0.0 0.00 0.00 0.00 1018.6
20260905093046 -17 225 1.6 6.4 0.00 0.00 0.00 1018.5
20260905091541 -17 225 0.0 0.0 0.00 0.00 0.00 1018.7
20260905090039 -17 225 0.0 3.2 0.00 0.00 0.00 1018.7
20260905084538 -17 225 0.0 0.0 0.00 0.00 0.00 1018.9
20260905083032 -17 225 0.0 1.6 0.00 0.00 0.00 1019.0
20260905081524 -17 225 0.0 1.6 0.00 0.00 0.00 1018.7
20260905080031 -17 226 0.0 1.6 0.00 0.00 0.00 1018.3
20260905074519 -17 226 0.0 1.6 0.00 0.00 0.00 1018.2
20260905073010 -17 226 0.0 1.6 0.00 0.00 0.00 1017.8
20260905071511 -17 226 0.0 1.6 0.00 0.00 0.00 1017.6
20260905070003 -17 226 0.0 1.6 0.00 0.00 0.00 1017.3
20260905064604 -17 226 0.0 1.6 0.00 0.00 0.00 1017.5
20260905063055 -17 226 0.0 1.6 0.00 0.00 0.00 1017.4
20260905061556 -17 226 0.0 0.0 0.00 0.00 0.00 1017.5
20260905060044 -17 226 0.0 0.0 0.00 0.00 0.00 1017.5
20260905054540 -17 226 0.0 0.0 0.00 0.00 0.00 1017.5
20260905053033 -17 226 0.0 0.0 0.00 0.00 0.00 1017.4
20260905051540 -17 226 0.0 0.0 0.00 0.00 0.00 1017.5
20260905050026 -17 226 0.0 3.2 0.00 0.00 0.00 1017.4
20260905044522 -17 226 0.0 0.0 0.00 0.00 0.00 1017.6
20260905043017 -17 226 0.0 1.6 0.00 0.00 0.00 1017.5
20260905041513 -17 226 0.0 0.0 0.00 0.00 0.00 1017.4
20260905040008 -17 226 0.0 3.2 0.00 0.00 0.00 1017.4
20260905034503 -17 226 0.0 0.0 0.00 0.00 0.00 1017.5
20260905033117 -17 226 0.0 0.0 0.00 0.00 0.00 1017.5
20260905031611 -17 226 0.0 0.0 0.00 0.00 0.00 1017.8
20260905030058 -17 226 0.0 0.0 0.00 0.00 0.00 1018.1
20260905024547 -17 226 0.0 0.0 0.00 0.00 0.00 1018.0
20260905023053 -17 226 0.0 0.0 0.00 0.00 0.00 1017.9
20260905021538 -17 226 0.0 0.0 0.00 0.00 0.00 1018.2
20260905020037 -17 226 0.0 0.0 0.00 0.00 0.00 1018.2
20260905014530 -17 226 0.0 0.0 0.00 0.00 0.00 1018.2
20260905013025 -17 226 0.0 0.0 0.00 0.00 0.00 1018.4
20260905011521 -17 226 0.0 0.0 0.00 0.00 0.00 1018.5
20260905010016 -17 226 0.0 0.0 0.00 0.00 0.00 1018.9
20260905004512 -17 226 0.0 4.8 0.00 0.00 0.00 1019.2
20260905003007 -17 226 0.0 6.4 0.00 0.00 0.00 1019.2
20260905001503 -17 226 0.0 0.0 0.00 0.00 0.00 1019.3
20260905000121 -17 226 0.0 1.6 0.00 0.00 0.00 1019.1
20260904234554 -17 226 0.0 0.0 0.00 0.00 0.00 1019.1
20260904233051 -17 226 0.0 0.0 0.00 0.00 0.00 1019.3
20260904231545 -17 226 3.2 8.0 0.00 0.00 0.00 1019.2
20260904224540 -17 223 3.2 8.0 0.00 0.00 0.00 1019.4
20260904223043 -17 221 3.2 11.3 0.00 0.00 0.00 1019.5
20260904221544 -17 235 8.0 16.1 0.00 0.00 0.00 1019.6
20260904220044 -17 219 6.4 11.3 0.00 0.00 0.00 1019.7
20260904214538 -17 214 4.8 8.0 0.00 0.00 0.00 1019.6
20260904213040 -17 239 4.8 8.0 0.00 0.00 0.00 1019.3
20260904211535 -17 239 0.0 0.0 0.00 0.00 0.00 1019.1
20260904210036 -17 239 0.0 8.0 0.00 0.00 0.00 1018.9
20260904204535 -17 239 4.8 8.0 0.00 0.00 0.00 1018.8
20260904203030 -17 243 3.2 8.0 0.00 0.00 0.00 1018.6
20260904201524 -17 243 0.0 0.0 0.00 0.00 0.00 1018.5
20260904200022 -17 243 3.2 9.7 0.00 0.00 0.00 1018.4
20260904194516 -17 221 0.0 6.4 0.00 0.00 0.00 1018.3
20260904193012 -17 243 0.0 8.0 0.00 0.00 0.00 1018.5
20260904191507 -17 259 0.0 4.8 0.00 0.00 0.00 1018.3
20260904190002 -17 317 1.6 8.0 0.00 0.00 0.00 1018.2
20260904184558 -17 360 0.0 9.7 0.00 0.00 0.00 1018.3
20260904183109 -17 14 0.0 14.5 0.00 0.00 0.00 1018.2